Date,TemperatureHighF,TemperatureAvgF,TemperatureLowF,DewpointHighF,DewpointAvgF,DewpointLowF,HumidityHigh,HumidityAvg,HumidityLow,PressureMaxIn,PressureMinIn,WindSpeedMaxMPH,WindSpeedAvgMPH,GustSpeedMaxMPH,PrecipitationSumIn
2013-3-1,55.3,45.6,32.8,38.2,32.2,28.1,85,61,43,29.99,29.87,15,3,16,0.00
2013-3-2,48.1,40.6,33.1,39.6,33.7,28.9,86,76,66,29.96,29.88,18,4,18,0.01
2013-3-3,48.7,39.4,33.7,31.2,27.9,24.2,82,65,42,30.05,29.93,15,2,16,0.00
2013-3-4,58.8,41.4,24.7,32.2,24.9,20.8,89,57,23,30.22,30.05,12,1,13,0.00
2013-3-5,69.8,53.1,36.4,56.4,43.7,31.5,92,72,49,30.12,29.69,25,4,25,0.14
2013-3-6,52.6,44.8,37.0,41.4,29.2,23.6,72,55,41,30.14,29.74,32,10,32,0.00
2013-3-7,60.8,43.6,27.6,37.1,31.4,24.9,92,66,36,30.26,30.13,15,1,18,0.00
2013-3-8,61.4,46.0,30.3,33.6,29.0,22.8,88,56,25,30.33,30.19,14,1,14,0.00
2013-3-9,65.7,46.7,28.1,39.7,33.4,25.8,94,65,32,30.36,30.23,8,0,12,0.00
2013-3-10,71.2,53.0,33.7,49.5,41.5,31.6,95,69,39,30.30,30.16,13,1,13,0.00
2013-3-11,73.0,59.4,43.1,57.8,48.3,32.3,92,67,51,30.21,29.87,17,2,19,0.00
2013-3-12,71.7,63.2,54.3,61.0,54.5,40.3,95,76,45,29.99,29.80,17,4,17,0.40
2013-3-13,64.2,52.9,38.4,40.2,32.3,25.0,87,49,25,30.17,29.98,24,5,27,0.00
2013-3-14,58.0,44.3,31.3,30.5,25.3,21.1,77,50,25,30.35,30.16,13,2,15,0.00
2013-3-15,71.7,52.1,31.4,42.5,34.9,24.9,89,57,32,30.26,30.00,22,3,22,0.00
2013-3-16,79.7,66.5,54.8,49.8,45.3,41.6,68,48,28,30.01,29.84,26,8,33,0.00
2013-3-17,76.8,66.4,55.6,56.5,52.0,46.2,82,61,43,30.02,29.92,21,5,23,0.00
2013-3-18,66.4,60.7,49.1,61.6,56.0,46.9,95,85,75,30.07,29.81,15,1,22,0.74
2013-3-19,74.2,59.9,50.0,54.8,44.1,27.6,97,65,21,30.03,29.85,18,4,20,0.00
2013-3-20,61.4,51.8,40.5,38.5,31.1,21.5,87,49,24,30.13,29.84,12,1,12,0.00
2013-3-21,56.3,46.8,36.2,32.5,23.3,13.9,73,42,20,29.98,29.82,29,4,29,0.00
2013-3-22,51.4,42.3,31.2,37.5,26.6,21.3,83,56,35,30.11,29.97,12,1,13,0.00
2013-3-23,50.6,46.0,40.2,48.8,43.3,34.8,95,90,78,30.06,29.90,12,1,14,0.28
2013-3-24,50.6,48.2,44.3,49.4,46.5,42.4,99,94,91,29.91,29.54,14,2,14,1.11
2013-3-25,52.0,45.9,40.1,44.7,31.7,23.8,96,60,38,30.00,29.61,36,11,36,0.00
2013-3-26,51.5,42.0,31.2,30.3,27.4,23.8,79,57,39,30.22,29.99,18,5,21,0.00
2013-3-27,58.6,43.8,28.1,32.7,28.8,24.9,90,59,31,30.30,30.19,17,2,19,0.00
2013-3-28,63.0,46.3,28.9,34.7,29.3,24.9,91,57,26,30.34,30.20,17,2,17,0.00
2013-3-29,67.5,50.2,30.4,41.5,32.0,27.3,93,56,23,30.37,30.20,12,1,12,0.00
2013-3-30,74.2,60.4,50.3,51.1,46.8,38.7,83,63,40,30.25,30.05,14,1,14,0.00
2013-3-31,77.5,64.7,58.7,60.9,55.1,49.0,93,72,48,30.06,29.85,26,5,26,0.13